Location: Foulognes
(49.1413°N, 0.8183°W)
Time: 01:01:29
(UTC+00:00)

STARLINK-53 - Pass Details

Date: 21 October 2019
Orbit: 550 x 552 km, 53.0° (Epoch: 21 November)

Event Time Altitude Azimuth Distance (km) Brightness Sun altitude
Rises 17:18:21 0° 263° (W) 2,719 10.0 -3.4°
Reaches altitude 10° 17:20:37 10° 268° (W) 1,826 8.1 -3.7°
Maximum altitude 17:24:42 57° 347° (NNW) 654 4.0 -4.4°
Drops below altitude 10° 17:28:49 10° 67° (ENE) 1,831 5.6 -5.0°
Enters shadow 17:29:38 - 69° (ENE) 2,154 6.0 -5.2°
